Theta_e
346 346 348 349 349 350 350 350 350 351 351 349 347 348 348 347 347 346 345 346 345 345 344 344 345 346 347 347 347 347 347 347 347 348 350 351 350 349 349 349 350 351 350 348 348 349 349 350 349 349 352 352 351 351 351 350 350 348 347 347 346 345 344 343 342 341 341 340 339 339 339 338 338 340 341 340 340 341 341 342 344 345 344 342 342
348 347 349 349 350 350 350 350 350 351 351 349 347 348 348 348 347 346 346 347 347 346 346 346 347 347 347 347 347 347 347 346 346 347 349 351 351 350 350 349 350 351 351 348 348 348 349 350 349 349 351 351 351 351 351 350 349 348 347 347 346 347 345 344 343 341 342 341 339 340 345 345 341 341 344 343 344 345 345 346 346 346 345 343 343
351 349 348 349 350 351 351 350 350 350 351 349 347 347 349 349 348 347 347 347 347 347 348 347 347 347 346 346 346 346 346 346 346 347 348 351 352 351 350 350 350 352 351 349 348 348 349 350 350 350 351 351 351 350 350 350 349 348 348 347 347 347 347 346 344 343 344 342 342 347 352 355 352 346 343 343 344 346 346 347 346 346 345 344 344
351 349 348 349 350 351 351 351 350 350 350 349 348 348 350 351 349 348 347 347 347 347 348 348 347 347 346 346 346 345 345 345 346 347 349 351 352 352 350 349 350 351 351 350 349 349 350 351 351 351 351 351 352 350 349 350 350 349 349 348 347 347 348 347 346 346 345 343 348 353 350 354 359 350 345 344 344 346 347 346 346 347 346 346 346
350 349 348 349 349 350 351 351 351 350 350 350 349 349 351 351 349 348 347 346 347 348 348 348 347 347 347 347 346 346 346 346 346 348 349 350 352 351 350 349 349 350 351 352 352 352 352 352 352 352 352 352 352 351 350 350 350 350 350 350 348 347 348 348 348 348 349 346 348 352 350 355 358 348 347 351 346 346 346 346 346 347 348 347 348
348 348 347 348 349 350 351 351 351 350 350 350 349 349 350 350 349 348 348 347 347 348 348 348 348 347 347 347 346 347 347 347 346 347 348 350 351 351 351 350 349 349 350 352 354 354 353 353 353 353 353 352 352 351 350 350 350 350 350 350 350 349 348 349 350 349 351 350 348 349 349 351 351 346 352 357 350 347 347 346 347 347 347 348 349
348 348 347 348 349 349 350 350 351 350 350 350 349 349 349 349 349 349 349 348 347 347 347 347 347 348 347 346 346 347 347 347 345 346 347 348 350 351 351 352 351 350 350 351 353 354 354 353 353 352 352 353 352 351 350 350 351 351 350 351 351 350 348 349 352 351 351 352 351 352 351 349 347 347 354 356 354 353 348 346 348 347 348 348 349
348 348 347 348 348 349 350 350 350 351 350 350 350 349 349 349 350 350 349 348 347 347 347 347 347 347 347 346 346 346 346 346 345 345 347 348 350 351 351 352 352 351 349 349 351 353 354 353 352 352 352 352 352 351 350 351 351 351 350 351 352 351 350 351 353 352 352 353 353 353 354 353 351 350 350 349 352 356 354 350 349 347 348 348 349
347 347 347 347 348 349 349 350 350 350 350 349 350 350 350 350 350 350 349 347 347 346 346 347 347 347 347 346 346 347 346 345 346 346 348 349 350 351 351 351 352 351 348 347 347 349 350 351 352 353 354 354 353 352 352 351 352 352 351 352 353 352 353 354 354 352 353 353 354 354 354 354 354 352 350 347 349 354 356 355 351 349 350 349 349
347 347 346 346 348 349 349 350 350 350 350 349 349 349 349 350 350 350 350 347 346 347 347 347 347 347 346 346 347 347 347 347 347 348 348 349 350 351 350 351 352 351 348 346 346 348 349 352 353 353 354 355 354 353 352 352 352 353 353 352 352 352 353 355 354 353 353 353 354 355 354 355 355 353 352 350 348 349 352 352 349 349 350 350 349
347 346 346 345 347 349 349 349 349 349 349 348 348 349 349 350 349 349 349 348 346 347 347 346 346 346 347 347 347 347 347 347 347 348 348 349 350 350 351 351 352 352 349 347 347 350 352 353 354 353 353 353 352 353 353 353 353 353 353 352 352 352 352 353 354 354 354 354 354 356 356 356 356 355 354 353 350 349 351 352 349 348 349 349 349
348 347 346 346 347 348 349 349 349 349 348 348 348 348 348 349 349 349 348 348 347 346 347 345 345 346 347 347 347 347 347 346 347 347 348 349 349 350 351 351 352 352 351 350 350 353 354 353 355 354 353 351 349 351 354 354 353 353 353 352 352 353 353 354 354 355 355 355 356 356 356 357 356 354 354 354 352 350 350 351 349 349 350 350 349
348 348 347 347 347 348 348 348 349 348 347 347 347 347 348 348 348 348 348 348 347 346 346 346 345 346 346 347 348 348 348 347 347 348 347 348 348 349 351 351 352 352 351 350 351 353 354 354 354 355 354 352 349 350 353 355 353 352 353 353 353 353 353 354 354 355 355 355 356 355 356 357 356 354 353 353 352 350 349 350 350 349 351 351 350
348 348 347 347 347 347 348 349 348 348 347 347 347 347 347 348 348 348 348 348 347 346 346 345 345 345 345 346 347 348 349 348 347 348 348 347 348 348 350 351 351 351 351 350 351 352 353 353 354 354 354 353 352 349 350 353 353 353 353 354 354 354 354 354 354 356 356 355 356 356 357 358 356 354 353 351 351 351 350 351 351 350 350 350 350
348 348 347 346 346 347 347 348 348 348 347 347 346 346 347 347 348 347 348 348 347 346 346 345 346 346 345 346 347 348 349 348 348 348 348 348 348 348 349 350 350 350 351 350 351 351 351 352 353 353 354 354 353 350 348 350 353 354 354 354 354 355 355 355 356 356 356 355 356 357 357 357 356 355 354 352 351 352 353 352 352 353 355 353 351
349 348 349 346 345 346 348 348 348 348 347 347 346 346 347 347 347 347 347 347 347 346 345 346 346 346 347 347 348 349 348 348 347 348 348 348 349 349 349 350 350 350 350 350 351 351 351 351 351 351 353 354 353 351 348 350 352 354 355 354 353 354 356 356 356 356 355 355 356 357 357 355 355 354 354 354 353 354 354 354 352 352 356 357 356
351 351 350 347 345 345 347 348 348 348 347 347 347 346 347 347 347 347 347 347 346 346 346 346 346 346 347 348 349 350 349 347 347 348 349 349 350 350 350 349 349 349 349 349 350 351 351 351 351 351 353 353 352 351 350 351 353 355 355 354 353 354 355 356 356 355 355 355 356 357 356 356 355 354 354 355 355 355 355 354 353 351 352 356 359
353 352 350 347 345 344 346 347 348 348 347 347 347 347 347 347 347 347 347 347 346 346 346 345 346 347 348 349 350 350 349 348 349 350 350 351 350 350 350 349 349 348 348 349 350 352 352 352 351 352 353 353 353 353 352 353 353 354 355 356 355 355 356 356 355 356 356 356 357 357 357 357 356 355 355 356 355 355 354 354 353 351 350 352 355
354 354 354 352 346 344 346 346 347 347 347 348 347 347 347 347 347 347 347 347 346 346 346 346 346 346 348 349 349 350 350 349 350 351 351 351 350 349 349 349 349 349 350 351 352 353 353 353 353 353 352 353 354 354 354 354 354 354 355 356 357 357 357 356 355 356 356 357 357 357 357 357 357 356 355 355 354 353 353 353 353 352 350 350 350
360 360 360 356 347 344 345 345 346 346 346 347 347 347 348 347 347 348 347 347 347 347 346 346 346 346 347 348 348 350 351 350 351 351 352 352 350 349 349 348 349 350 351 352 353 353 353 353 354 354 353 353 354 354 354 354 354 354 355 356 358 358 358 356 356 356 357 358 357 357 357 358 357 356 355 355 354 353 353 353 353 352 351 350 350
364 362 360 355 347 344 345 344 345 346 345 347 347 347 348 348 348 348 348 348 347 347 348 347 347 347 347 347 347 348 350 350 350 351 351 351 350 349 349 349 350 351 351 352 353 354 353 354 355 355 355 354 354 354 354 354 354 354 355 356 356 357 357 357 357 357 358 358 357 357 357 357 357 356 355 354 353 352 352 353 353 353 351 350 350
358 357 356 353 347 345 346 345 344 345 345 346 347 347 347 348 348 348 348 348 348 348 348 348 348 348 347 347 347 347 348 349 350 350 350 351 351 350 350 351 351 350 351 353 354 355 354 354 355 355 355 355 354 353 353 353 354 354 354 354 354 356 357 357 357 358 358 358 357 357 357 357 356 355 354 354 353 352 352 352 353 354 353 352 352
354 353 352 349 346 345 345 345 344 345 345 345 346 346 347 348 348 349 349 349 348 348 348 348 348 348 348 348 347 348 348 348 348 349 349 350 350 351 351 351 352 351 352 353 354 356 356 355 354 355 355 355 354 353 352 353 353 354 354 353 354 354 355 356 357 357 358 358 358 357 356 355 355 355 354 353 353 353 352 353 354 355 356 355 355
353 352 351 347 345 346 346 345 345 345 345 345 345 345 346 347 348 349 349 349 349 349 349 349 349 349 349 349 348 349 349 348 349 348 347 348 349 351 351 351 352 352 352 353 354 356 356 355 354 354 355 354 353 352 351 352 353 353 353 353 353 353 354 355 356 356 358 358 357 357 355 354 354 354 354 353 353 354 353 353 355 357 357 357 357
353 352 352 350 348 346 346 346 346 346 345 346 345 345 345 346 348 349 349 349 349 349 349 349 349 349 349 349 349 349 350 349 349 348 347 347 348 350 350 351 351 352 352 352 353 354 355 354 354 354 354 353 352 351 351 350 351 352 352 352 353 353 353 353 354 355 356 356 357 357 355 354 354 353 353 353 354 355 355 354 355 357 357 357 356
352 354 353 351 349 347 346 346 346 346 346 346 345 346 345 345 348 348 349 350 350 349 350 349 349 350 349 350 350 350 350 350 350 350 348 346 347 348 349 350 351 351 351 351 352 353 353 353 353 353 354 353 353 352 350 350 350 350 350 351 351 352 352 352 353 355 356 356 356 356 355 354 354 353 353 354 354 355 355 355 356 356 356 354 352
350 353 352 351 349 346 345 346 346 346 346 346 346 346 345 345 347 348 348 350 350 350 350 350 350 350 350 350 350 350 350 350 350 350 349 347 346 347 348 349 349 349 350 351 352 352 353 353 353 353 353 353 352 352 351 350 349 349 350 351 351 351 351 352 353 355 355 355 355 355 355 354 353 354 354 355 355 355 356 356 356 354 353 351 351
348 350 351 353 351 347 345 345 346 346 346 347 346 345 346 345 346 347 348 349 350 350 350 350 350 350 350 350 350 350 350 350 350 350 350 349 348 347 347 347 348 349 350 352 353 353 353 353 353 353 353 353 352 351 351 350 349 349 350 351 351 351 351 351 353 354 354 354 354 354 354 353 354 356 356 355 355 356 356 355 354 352 351 350 349
348 348 349 351 351 349 346 345 346 346 346 347 346 346 346 345 345 346 348 349 350 350 350 350 351 351 351 351 350 350 350 350 350 351 351 351 350 349 348 347 348 349 351 352 353 353 353 353 353 353 353 353 353 352 351 350 349 349 350 352 351 350 350 350 352 353 351 350 351 352 355 355 356 358 358 356 356 355 355 353 352 350 349 347 345
348 347 347 348 349 348 346 345 346 346 346 347 346 346 346 345 345 346 346 348 349 350 350 351 351 351 351 351 351 351 351 351 351 351 351 352 351 350 350 349 350 350 351 352 352 352 353 352 353 353 353 353 353 352 352 351 351 350 351 351 351 350 350 350 351 350 349 348 350 353 356 356 357 358 358 356 354 354 352 350 348 346 344 342 342
346 346 346 347 347 346 344 345 345 345 346 346 346 347 346 346 346 345 346 348 348 350 351 350 351 351 351 352 352 352 352 352 352 352 352 352 352 352 352 352 352 352 352 353 352 352 352 352 353 353 353 353 352 352 352 351 351 351 351 351 351 351 351 351 350 349 348 349 351 353 355 356 357 357 356 354 352 350 347 343 341 340 340 340 340
347 345 345 345 346 346 344 343 344 345 346 345 346 347 346 346 347 346 346 347 348 350 351 350 351 351 351 352 352 352 353 352 352 352 352 352 353 353 353 353 353 353 353 353 352 352 352 352 352 352 352 352 352 352 352 351 351 352 351 351 350 351 351 350 350 350 349 349 350 352 354 356 356 355 353 352 349 344 339 337 337 337 338 338 338
346 344 345 344 344 343 341 342 343 343 344 345 346 346 346 346 347 346 346 346 347 350 351 351 351 351 352 352 352 353 353 353 353 353 353 353 353 353 354 354 353 353 353 353 353 352 352 352 352 352 352 352 352 352 351 351 352 352 351 351 351 352 353 352 352 352 350 350 351 351 352 352 353 352 350 346 341 336 334 334 334 335 335 336 336
344 344 344 342 340 340 340 341 342 342 343 344 345 346 346 346 346 347 347 346 347 348 350 351 352 352 352 352 352 353 353 353 353 353 353 354 354 354 354 354 354 353 353 353 352 352 352 351 351 351 351 351 350 350 350 350 351 351 351 351 352 353 354 354 353 353 351 350 350 351 352 351 349 345 340 336 333 332 331 332 332 334 335 336 336
346 346 345 342 340 341 341 341 342 343 342 343 343 345 345 346 347 347 347 347 347 347 349 351 352 352 352 352 352 353 352 353 353 353 354 354 353 354 354 354 354 353 353 353 352 351 351 350 351 351 350 349 347 347 348 349 350 351 351 352 353 354 354 353 351 350 350 350 351 351 346 341 336 332 329 328 328 328 329 331 334 336 337 337 338
346 344 343 342 341 341 341 341 341 341 341 341 341 342 342 344 345 347 348 348 347 347 348 350 351 352 352 352 352 352 352 352 351 350 351 353 353 354 353 353 353 352 352 352 351 350 350 350 350 349 348 346 344 344 345 346 348 349 350 351 352 352 351 350 348 348 348 347 346 343 337 330 326 324 325 326 328 328 331 334 336 337 337 337 337
341 340 340 340 340 340 340 340 339 339 338 337 338 338 339 340 341 344 347 348 348 347 348 349 350 351 352 352 352 352 352 352 351 349 349 351 353 353 353 353 352 352 351 350 349 349 348 348 347 345 344 343 341 341 342 343 344 346 347 348 349 349 348 347 345 343 342 339 335 332 328 326 325 326 328 330 332 333 335 336 337 337 336 335 334
339 339 340 338 339 339 338 337 336 335 335 335 335 335 336 337 338 340 343 346 348 348 348 348 349 350 350 351 351 352 351 351 351 349 348 350 353 353 353 352 352 351 349 347 347 346 343 342 342 340 340 340 339 339 339 341 342 343 344 347 348 347 343 339 336 334 331 329 328 326 326 327 330 332 333 334 334 334 335 336 336 335 333 332 330
338 339 339 338 338 336 335 335 334 334 334 334 334 335 335 335 336 337 339 342 346 348 348 348 348 348 349 350 350 351 350 349 348 347 347 350 353 353 351 350 348 347 344 343 344 341 336 336 337 336 335 337 336 335 335 337 338 340 342 345 345 342 337 333 332 331 327 326 327 329 330 332 334 334 333 333 331 329 332 335 334 333 333 330 327
338 338 337 336 335 333 333 333 333 333 333 334 335 335 335 336 337 337 337 339 342 346 348 348 348 348 348 349 349 349 349 348 348 348 348 349 351 351 349 348 345 343 341 340 340 337 334 333 332 332 332 332 332 331 330 332 335 337 341 341 338 334 332 330 329 328 327 327 330 332 333 334 333 332 332 331 329 328 331 333 333 332 330 328 324
336 335 334 333 332 332 332 332 332 333 333 334 335 334 335 337 338 337 338 339 339 342 346 348 348 348 348 348 348 349 349 349 349 348 348 349 350 350 349 347 345 341 340 338 336 335 332 330 328 329 329 328 328 328 328 330 333 335 336 336 333 329 327 326 325 327 328 330 331 332 333 333 333 333 332 331 329 329 330 332 332 330 326 323 321
333 332 332 331 331 331 330 330 331 332 333 334 334 332 334 337 338 338 340 341 339 340 344 347 348 348 348 348 348 349 349 349 349 349 348 347 347 347 347 345 342 339 336 334 333 331 329 327 326 326 327 326 325 326 327 328 331 332 331 331 328 326 324 324 324 326 328 329 330 330 330 331 332 333 333 331 328 328 329 330 329 326 323 321 321
331 330 330 330 330 329 328 328 329 331 333 334 332 332 335 339 340 342 343 342 340 341 344 347 347 347 347 348 348 349 349 349 348 348 346 342 339 340 341 340 337 335 333 330 328 328 327 326 324 323 324 324 324 324 325 327 329 329 328 326 323 321 321 323 324 325 328 329 331 332 332 331 332 333 333 330 327 327 328 327 325 323 322 321 318
329 328 329 328 328 328 327 327 329 331 332 333 331 332 336 338 340 342 343 341 341 342 345 346 347 346 346 347 348 348 348 348 347 346 342 337 335 335 335 333 333 333 330 327 326 326 326 324 321 319 318 319 319 319 320 323 325 326 325 324 323 320 321 323 324 325 328 329 331 333 333 333 333 332 331 328 326 326 325 324 323 322 320 318 314
327 327 327 326 326 326 325 326 329 330 330 330 330 332 334 335 338 341 343 343 343 345 346 346 345 345 345 346 345 344 344 345 344 342 338 335 333 332 330 329 330 330 328 325 323 323 322 320 318 316 316 316 316 315 315 316 319 321 320 321 320 319 320 323 324 324 326 329 331 333 333 332 331 330 328 326 324 324 323 322 322 320 317 314 312
325 326 326 325 325 325 325 326 327 328 328 329 330 330 331 333 336 339 341 342 342 343 344 343 343 343 342 343 342 338 337 337 337 337 335 331 330 329 327 326 326 325 323 321 319 318 317 317 316 315 314 313 313 313 312 312 313 316 317 318 317 317 318 320 322 321 321 325 330 331 329 328 328 327 325 324 322 322 322 321 319 316 314 313 312
324 325 324 324 324 324 324 325 325 326 327 327 328 330 330 331 333 335 337 338 337 337 337 337 337 337 337 337 336 334 332 332 331 330 329 328 327 326 325 324 324 322 320 319 318 317 316 315 315 314 314 314 315 315 315 314 312 312 314 314 314 315 315 315 318 318 317 322 329 330 327 326 326 324 323 322 321 321 320 317 315 313 312 312 312
324 323 322 323 323 323 324 324 324 326 326 326 327 328 329 330 331 332 333 334 332 331 332 332 332 332 331 332 331 330 329 329 328 328 328 327 326 326 325 324 322 319 317 317 317 316 315 316 317 318 317 317 319 320 321 320 318 317 316 315 315 316 315 314 315 315 317 324 330 329 326 324 323 322 321 321 319 318 316 314 313 312 312 312 312
322 321 322 323 324 324 323 324 325 326 326 326 326 326 327 328 329 329 330 330 329 329 329 329 328 328 328 327 327 327 326 326 327 327 327 326 325 324 324 323 320 316 313 314 316 317 318 318 318 317 316 317 319 321 322 323 323 323 323 323 322 322 323 322 321 321 323 327 329 326 324 322 321 321 320 318 316 314 313 312 312 312 312 312 312
320 321 324 324 323 323 323 324 325 325 325 325 325 325 326 327 327 328 329 329 328 328 327 326 326 326 325 324 324 324 324 324 324 324 325 325 325 324 323 321 319 317 315 315 316 317 316 316 316 317 319 320 322 324 324 324 325 325 325 326 326 327 328 328 327 327 327 326 325 323 321 321 320 320 318 315 314 313 312 312 312 312 312 312 312
320 324 326 324 322 323 324 325 326 325 324 324 324 325 326 326 326 327 327 327 328 327 326 325 324 323 323 323 323 323 324 324 324 325 325 324 322 321 319 317 315 315 315 315 314 314 314 316 319 321 323 323 324 324 324 325 326 326 327 329 330 331 331 329 328 327 326 324 323 322 321 320 319 317 315 313 313 313 312 312 312 311 312 311 311
Wind_Speed
9 14 16 17 18 18 18 19 19 18 18 18 18 18 17 17 17 17 18 18 17 17 17 18 17 17 16 16 16 15 13 11 9 10 11 9 9 8 8 8 7 7 6 7 7 6 5 5 4 3 3 2 1 2 3 3 3 4 3 2 3 3 3 3 1 2 4 4 4 5 4 4 4 3 3 4 4 5 6 6 7 8 8 9 9
7 11 14 16 17 18 18 19 20 20 20 20 20 19 18 18 18 18 18 19 19 18 18 19 19 19 18 17 17 15 14 12 10 11 11 10 10 10 10 10 9 9 7 7 7 6 5 5 4 4 3 2 2 2 3 3 4 4 3 2 3 4 6 5 4 1 1 1 2 2 1 1 3 3 1 2 2 3 4 4 6 7 7 7 7
6 8 12 16 17 18 18 19 21 21 21 22 22 21 19 19 19 19 19 20 20 19 19 18 18 18 17 17 16 14 13 11 10 11 11 11 11 11 11 11 11 10 8 7 7 7 6 5 4 4 4 4 4 4 4 3 4 4 4 3 3 4 5 6 6 4 2 2 1 1 1 1 2 2 2 5 3 3 5 4 6 7 7 7 8
8 8 10 14 16 18 18 19 21 21 21 22 23 23 21 20 20 20 20 21 21 20 19 18 17 16 16 15 14 13 12 11 11 12 12 12 12 12 12 11 11 10 8 7 7 7 7 6 5 5 5 5 6 5 5 4 4 5 5 5 4 4 4 5 6 6 5 3 2 1 1 1 1 2 7 6 3 5 5 4 7 7 9 10 10
10 10 9 12 16 19 20 21 21 21 22 24 25 25 23 22 21 21 21 21 21 21 19 18 16 16 15 14 13 13 12 11 12 14 14 14 14 13 12 11 11 11 9 8 7 7 7 7 6 6 6 7 7 7 7 5 5 5 5 6 6 5 5 4 4 6 7 5 3 1 1 1 1 2 5 4 6 8 4 6 9 8 11 13 12
10 11 11 13 16 18 20 21 21 22 24 26 26 26 25 23 22 22 22 22 22 21 20 18 17 17 16 15 14 13 12 12 15 17 17 16 15 13 12 11 11 11 10 9 8 8 7 7 7 8 8 9 9 9 8 6 5 5 5 6 6 5 5 4 4 5 6 7 6 3 3 2 2 2 2 2 8 9 5 10 11 9 14 14 12
7 9 10 12 16 17 19 21 23 24 25 26 26 26 25 24 23 23 22 22 22 21 20 19 18 18 17 16 16 16 16 16 17 19 18 17 15 13 11 11 10 10 11 11 10 9 8 8 8 9 9 10 10 10 8 7 6 5 5 5 5 5 6 5 6 6 5 6 7 6 5 3 2 2 0 1 4 5 9 13 12 12 15 14 13
8 8 9 11 16 19 20 23 25 26 26 25 25 26 26 25 24 23 23 23 22 22 21 20 20 19 18 18 19 18 19 18 17 18 18 17 15 13 11 11 10 10 10 11 12 11 10 9 9 9 9 10 10 9 8 7 6 6 5 6 5 6 6 6 6 6 7 7 7 7 7 6 5 4 3 2 1 2 8 11 13 17 17 14 14
10 10 10 12 17 21 23 24 26 25 25 26 27 27 27 26 25 24 23 23 23 22 21 21 21 20 20 21 20 20 19 18 17 17 17 16 15 13 12 11 11 11 11 11 12 12 11 9 9 9 9 9 9 8 8 7 6 5 5 5 5 6 6 5 5 6 7 7 8 8 8 9 8 6 4 3 2 2 3 4 11 17 17 16 15
10 10 11 15 19 23 24 23 24 25 25 26 27 27 27 27 26 26 25 25 24 23 22 22 21 21 22 22 21 20 20 18 17 17 16 15 15 14 12 11 11 11 11 11 11 11 10 9 9 9 9 9 8 8 8 7 6 5 5 5 5 5 5 5 6 7 7 7 7 8 8 9 8 4 4 5 3 3 2 3 9 11 11 15 17
9 9 10 15 20 22 22 21 23 24 24 24 25 26 27 28 28 27 27 26 25 24 22 22 22 23 23 23 21 21 20 19 17 17 16 16 15 14 13 12 12 12 11 11 11 10 10 10 9 9 10 10 10 9 8 7 7 6 5 5 5 5 5 5 6 6 6 6 7 7 8 8 6 4 7 8 5 4 3 4 9 10 9 13 16
9 8 9 12 14 17 19 21 22 23 23 24 25 26 27 28 29 29 29 28 27 25 24 23 24 24 23 21 20 20 20 19 18 17 17 17 16 14 13 13 13 12 12 12 12 11 10 10 10 10 10 11 11 9 8 8 7 7 6 6 6 6 7 7 7 6 6 6 7 7 7 8 7 7 8 8 7 7 5 4 8 10 7 11 16
9 8 9 9 10 14 18 20 21 22 23 25 26 27 28 29 29 30 31 31 29 28 27 25 25 24 22 20 19 19 20 20 19 18 17 17 15 14 15 15 14 13 14 14 13 12 11 11 10 10 10 10 10 9 9 9 8 8 7 6 6 7 7 7 7 7 7 7 7 8 7 7 8 9 8 7 7 7 7 5 7 8 5 9 15
9 9 9 9 11 16 19 21 22 23 25 27 27 27 28 29 30 31 32 32 31 30 29 27 26 25 23 22 20 19 19 20 20 18 17 17 16 16 15 15 15 14 14 14 13 12 12 12 11 11 10 9 9 9 10 10 10 9 8 7 7 7 7 7 6 7 7 7 8 8 8 7 8 9 8 7 6 6 7 6 7 7 7 9 10
8 9 10 10 14 18 20 21 23 24 25 26 27 28 28 29 30 31 32 32 32 32 30 29 28 27 25 23 21 20 20 20 20 19 18 17 16 16 16 16 16 15 14 14 13 13 13 12 12 11 10 10 9 10 10 11 11 11 10 9 9 8 8 7 7 8 8 8 8 8 8 9 10 10 9 7 6 6 7 7 6 4 4 5 5
8 9 10 11 15 19 21 22 24 25 26 27 27 28 29 29 31 32 32 32 33 33 31 29 29 27 25 23 22 21 21 20 21 20 19 18 17 17 17 17 16 15 15 14 13 13 13 13 12 11 10 10 10 10 10 11 11 11 11 11 11 10 9 9 9 9 10 10 9 9 9 10 10 10 9 8 7 6 7 8 7 6 4 3 2
6 7 8 10 14 18 20 22 24 24 25 27 29 30 31 31 31 32 32 31 32 33 31 30 29 28 25 24 23 23 22 21 21 20 19 19 18 18 18 18 17 16 15 14 13 13 13 13 12 11 11 10 10 11 11 11 12 12 12 12 12 12 11 11 11 10 10 9 9 9 9 10 9 8 8 8 7 8 8 8 9 8 6 3 1
4 4 5 8 12 17 21 23 26 28 29 29 30 31 32 32 31 32 32 32 33 33 31 30 30 29 27 25 24 24 23 22 21 20 19 19 19 20 20 19 17 16 15 14 14 14 13 13 13 13 12 11 12 12 13 13 14 14 14 13 13 13 13 13 11 10 10 9 9 10 10 10 8 7 7 7 7 8 8 8 9 9 8 6 4
3 2 2 3 4 5 7 7 9 15 21 27 31 31 30 30 31 31 33 33 34 33 32 30 31 31 30 27 26 25 25 24 23 21 20 19 20 20 20 19 17 16 15 15 14 15 14 14 14 14 14 14 14 14 15 16 16 16 15 14 13 13 13 13 11 10 9 10 10 10 10 10 9 8 8 8 9 9 8 8 8 9 9 8 7
3 3 3 3 6 7 5 4 1 5 11 14 21 27 29 30 29 30 31 31 31 32 31 31 31 32 31 30 28 27 26 25 24 23 22 20 20 20 20 19 17 16 15 15 16 16 16 15 15 16 16 16 17 17 16 16 17 17 17 16 14 14 13 13 12 11 10 10 11 10 10 10 9 9 10 10 10 9 8 8 7 8 8 7 7
3 5 4 4 8 13 15 15 16 19 18 14 16 22 27 29 29 29 29 29 30 31 32 32 32 32 32 31 31 30 29 28 27 26 24 22 20 20 20 19 18 17 17 16 17 17 17 18 17 18 18 18 18 18 17 17 17 17 18 17 16 15 14 13 12 11 11 10 10 10 11 10 10 11 11 11 10 8 7 7 7 7 7 6 6
4 3 4 5 8 14 17 18 19 22 24 21 18 20 23 26 29 29 29 29 30 31 32 33 32 32 32 33 32 32 31 30 29 28 27 25 22 20 20 20 19 19 18 18 18 18 19 20 19 19 19 18 19 19 18 19 19 19 19 18 17 16 16 15 13 13 12 12 12 12 13 12 11 12 11 9 9 8 7 7 7 6 7 6 6
4 3 2 3 8 14 18 19 18 19 22 23 22 21 23 26 27 28 29 30 31 32 33 33 33 32 33 33 32 32 31 30 30 29 29 28 26 22 21 21 21 20 20 20 20 20 20 20 20 19 19 19 20 20 20 20 20 21 19 18 17 17 16 16 15 14 14 14 14 13 13 12 11 10 10 8 8 8 7 6 6 5 6 6 7
4 3 2 3 4 9 14 17 20 21 21 22 23 23 25 26 26 27 29 31 31 31 31 32 32 33 33 32 31 31 30 30 30 30 30 30 29 26 24 23 22 22 21 22 23 23 22 21 21 21 20 20 21 21 21 20 21 21 19 18 17 17 16 16 16 15 15 15 15 14 12 10 9 9 9 7 6 5 5 5 5 5 6 7 8
5 4 3 2 2 4 7 12 18 22 23 24 24 23 25 27 28 28 30 30 31 31 30 31 32 32 32 31 31 31 30 30 30 30 30 30 30 29 27 26 25 24 24 24 25 25 24 24 24 23 22 21 20 20 20 21 21 20 19 18 17 17 16 16 17 17 16 15 15 13 12 9 8 8 7 5 4 4 5 6 6 7 7 8 10
5 5 4 2 1 1 4 7 11 17 22 25 25 23 24 27 29 30 31 30 30 30 30 30 31 31 31 31 31 31 31 31 31 31 30 30 31 31 30 29 28 26 26 26 26 26 26 26 26 24 23 22 21 20 20 20 20 20 19 18 17 16 16 17 18 17 15 15 14 13 12 9 7 6 5 4 5 5 5 6 6 7 8 9 10
4 4 4 3 2 0 2 5 8 12 15 20 23 23 24 25 28 30 31 31 30 29 29 30 30 30 31 31 32 32 32 32 32 32 32 31 31 31 31 31 29 28 27 27 26 26 26 26 26 25 24 23 21 20 20 19 19 19 18 18 17 16 17 17 17 16 15 15 14 12 11 8 6 6 5 5 5 5 4 4 5 6 7 8 9
3 3 4 4 3 2 1 2 6 9 12 14 17 21 23 24 25 27 29 30 30 29 29 29 29 30 31 32 33 33 33 33 33 32 32 31 31 31 31 31 30 28 27 27 27 26 26 26 26 26 25 23 22 21 20 19 18 18 18 17 17 17 17 16 16 15 16 15 13 12 10 7 5 5 5 4 4 3 2 3 4 6 7 9 9
4 4 4 4 3 2 2 3 5 7 10 13 15 19 21 23 23 24 26 28 29 29 29 29 28 30 32 33 33 33 32 32 32 31 31 31 31 31 31 30 29 29 28 28 26 26 26 26 26 26 25 23 22 21 20 19 18 17 17 16 16 17 17 16 14 13 12 12 12 9 6 5 4 3 2 2 2 2 2 3 4 6 7 8 9
4 4 4 4 4 4 3 4 5 6 9 12 15 18 20 23 24 24 25 27 28 29 29 29 29 31 32 32 32 32 31 31 31 31 31 31 31 31 30 30 29 29 29 28 27 26 26 26 26 25 24 23 22 21 20 19 18 17 15 16 16 16 15 13 12 11 10 10 9 7 4 4 5 5 4 3 2 1 2 2 4 6 6 7 7
4 4 4 4 5 5 5 5 6 7 8 10 14 16 19 22 24 24 25 25 26 28 29 30 31 33 32 31 31 31 30 30 30 31 31 31 31 30 30 29 29 29 29 28 28 28 27 26 25 25 24 23 22 21 20 19 18 16 15 15 14 13 12 12 12 11 11 10 10 8 8 8 8 7 6 4 3 1 1 1 3 4 4 5 6
4 4 4 5 6 6 6 8 9 9 9 9 11 13 16 21 23 25 25 24 24 26 29 30 31 32 32 31 31 30 30 30 30 31 31 31 30 30 29 29 28 28 28 27 27 28 27 26 25 24 24 22 22 21 20 19 18 16 15 14 12 12 14 13 12 11 11 12 12 9 11 12 11 10 8 6 4 2 1 1 2 3 5 6 7
3 5 5 4 5 7 8 11 11 11 11 11 11 11 14 17 20 23 25 25 25 26 28 30 31 31 32 32 31 30 30 30 30 30 30 30 29 29 29 29 29 28 27 26 26 26 26 25 24 23 22 21 20 20 19 18 17 15 14 14 14 14 14 13 13 14 15 16 15 13 13 13 11 10 8 6 5 4 4 4 4 6 7 8 9
4 5 5 5 7 9 12 14 15 14 13 13 12 12 13 15 17 20 22 24 25 26 27 29 30 31 31 31 31 30 30 31 31 31 29 28 28 29 29 29 28 27 26 24 24 24 24 23 22 21 20 19 18 17 17 16 15 14 13 14 14 13 12 13 15 15 14 14 15 16 16 15 13 11 8 7 6 7 8 8 9 10 11 12 12
5 5 5 6 9 11 14 15 16 15 15 14 13 13 13 14 15 17 19 22 24 26 27 28 29 30 31 30 30 30 29 28 27 27 29 30 29 28 28 27 25 23 22 22 22 22 21 21 20 19 18 16 14 14 14 14 14 13 13 14 13 12 12 12 12 11 11 13 16 17 15 13 12 11 9 8 9 10 11 12 14 15 16 16 16
5 6 7 9 12 14 15 15 15 15 15 15 15 15 16 16 16 16 18 20 22 25 27 27 28 29 29 29 29 28 27 22 16 14 19 25 28 28 26 24 21 19 19 19 19 18 18 19 18 17 15 12 10 10 10 11 12 11 12 13 13 12 11 10 10 10 11 13 14 15 13 9 9 11 11 11 12 13 15 16 18 19 19 20 20
7 9 11 13 15 16 16 15 15 16 16 16 17 17 18 18 17 17 18 19 21 23 25 26 28 28 27 27 28 28 28 26 22 18 17 20 23 25 24 23 21 19 18 17 16 16 16 17 16 13 11 9 7 7 8 8 9 8 8 9 10 10 10 10 10 10 11 12 11 9 9 10 12 14 15 15 16 16 18 20 21 21 22 22 21
8 11 13 15 16 16 16 17 18 18 18 18 18 19 18 18 19 18 18 20 21 22 24 25 26 27 27 28 29 29 28 28 29 30 26 21 18 19 21 22 22 21 19 18 17 16 14 12 11 9 8 7 5 4 5 6 6 5 4 6 8 9 9 10 11 12 12 13 12 11 12 16 19 19 18 19 19 19 21 21 21 22 24 22 20
8 10 13 14 15 15 17 18 18 19 20 20 20 20 19 19 21 20 19 21 21 22 23 24 24 25 26 29 30 30 28 25 25 27 27 23 19 19 21 21 21 21 20 20 18 16 14 12 10 9 7 6 4 2 1 2 2 1 2 7 11 13 15 17 17 18 18 18 19 21 22 24 24 21 18 19 21 21 21 20 20 22 23 21 19
9 10 12 13 14 15 16 17 17 18 19 20 20 21 20 22 24 23 22 23 22 21 21 23 23 24 24 27 29 28 26 25 26 26 25 22 20 20 21 21 21 21 21 20 19 17 16 14 12 10 9 6 5 6 6 5 4 4 5 11 17 20 22 23 22 22 22 22 23 24 25 24 24 22 19 19 21 22 21 20 19 22 23 20 19
8 9 11 12 14 14 14 15 16 17 18 18 18 18 20 25 27 26 26 26 24 22 21 22 23 24 24 25 26 26 26 27 28 28 27 25 23 23 24 24 23 22 22 21 20 18 17 16 13 11 10 8 7 8 8 8 9 11 11 14 19 22 23 25 27 25 23 21 20 19 20 22 22 22 21 20 20 20 20 20 20 22 22 20 19
6 8 9 11 12 12 13 14 15 16 16 17 16 15 18 23 26 27 30 29 25 22 21 21 22 24 25 25 25 26 28 29 29 29 30 29 28 29 29 28 27 26 24 22 20 19 18 17 14 11 10 9 8 7 9 10 13 17 18 19 21 21 20 22 26 26 23 21 19 16 16 17 19 20 20 20 20 19 20 20 20 21 20 19 18
6 7 7 8 9 10 12 13 14 15 16 16 15 15 15 17 21 24 25 24 22 22 21 22 23 24 26 27 27 28 29 30 32 34 33 32 33 35 34 32 31 29 27 25 22 20 19 17 15 13 10 10 9 9 10 13 16 20 21 22 23 23 22 24 27 25 21 20 19 17 15 15 16 18 19 20 20 20 20 20 20 19 18 17 18
5 6 6 7 7 9 11 12 13 14 14 14 14 13 12 12 13 15 14 13 16 20 21 22 24 26 26 27 29 31 33 33 34 35 35 34 36 37 35 34 33 32 30 28 24 22 20 18 17 16 14 13 13 13 13 15 17 19 21 22 23 23 24 26 25 22 19 18 17 16 16 17 17 19 20 20 21 21 21 20 19 18 17 17 19
4 5 6 6 6 8 10 11 12 13 14 15 14 13 12 13 11 6 5 9 15 19 22 22 24 26 27 28 27 27 32 36 36 35 35 36 36 36 34 33 33 33 32 29 25 23 22 22 20 19 17 16 16 16 16 16 16 17 19 20 20 20 22 24 22 18 17 17 15 16 18 19 19 20 21 22 22 21 20 19 17 17 17 18 20
5 5 5 5 6 8 10 12 14 16 17 16 15 14 14 14 11 6 5 9 13 17 18 20 22 23 25 28 27 23 24 29 32 32 32 33 34 35 34 33 33 32 30 28 25 23 22 21 20 19 18 17 16 17 17 16 16 17 18 18 18 18 20 20 16 13 12 14 17 20 21 21 21 21 22 22 22 20 19 18 17 18 19 19 20
4 4 4 6 8 10 11 12 15 17 18 17 17 17 16 15 14 12 11 11 11 11 12 13 14 15 18 24 29 30 29 28 27 29 31 31 31 33 32 31 31 30 27 24 23 22 20 19 18 17 16 15 14 14 14 14 15 16 17 17 17 17 17 17 15 12 12 14 19 22 22 22 23 23 22 22 21 19 18 18 19 19 20 20 21
4 4 6 8 10 11 12 13 15 17 19 19 19 19 18 17 17 15 16 18 17 17 19 21 20 20 19 19 23 29 34 33 31 31 33 33 31 31 30 28 28 30 29 25 21 20 20 19 18 16 14 13 12 12 12 12 12 12 12 12 12 13 14 15 15 14 14 16 20 22 22 23 24 24 23 22 20 19 19 20 20 19 20 20 20
5 6 8 10 11 12 14 16 17 18 19 19 21 21 19 19 19 19 21 24 24 23 24 26 27 26 26 27 28 30 34 36 36 36 36 34 32 31 29 26 26 28 28 26 24 22 21 19 18 17 15 14 14 13 11 10 9 8 8 8 8 9 10 12 13 16 19 23 23 23 23 24 24 24 23 21 20 20 20 20 19 19 18 18 18
6 7 10 11 13 14 15 17 18 19 19 20 21 20 20 20 20 21 24 27 28 28 28 28 28 28 27 30 33 33 35 37 37 37 37 36 33 30 28 26 26 26 25 24 24 22 20 18 18 17 16 15 15 14 12 11 10 9 9 9 10 11 12 15 19 23 26 26 24 23 23 23 23 22 22 21 20 20 20 19 18 17 17 17 17
5 7 10 11 12 14 16 17 18 19 20 21 21 21 20 20 20 22 25 27 29 29 27 26 27 28 28 30 33 33 34 36 35 35 37 38 37 33 30 28 28 27 25 23 22 21 19 19 19 19 17 17 16 16 16 15 15 15 15 15 16 16 19 23 27 29 27 25 24 24 23 22 22 21 20 20 20 19 18 18 17 17 16 16 15
Wind_Direction
184 185 186 185 186 185 183 182 183 184 187 188 187 191 193 190 189 186 185 185 184 184 185 186 187 189 195 201 206 206 209 217 223 222 214 208 205 203 209 215 214 217 226 228 225 228 233 235 239 266 300 319 354 354 355 5 5 354 0 23 28 42 41 33 4 245 233 242 233 230 245 247 255 271 280 284 286 291 287 293 315 321 317 310 304
164 177 182 182 183 183 182 180 182 184 187 189 190 192 196 196 193 189 189 191 190 190 191 192 192 192 196 200 203 207 212 220 224 218 210 207 209 210 215 217 214 215 222 225 227 233 241 245 247 260 283 310 324 333 345 358 5 4 3 0 25 41 40 40 28 357 228 217 180 198 248 227 238 217 207 305 286 305 303 302 330 333 329 326 318
166 174 178 181 183 182 182 183 186 188 187 189 191 193 197 200 198 194 194 195 195 196 197 198 198 196 197 198 201 208 216 223 223 213 208 210 214 216 218 216 212 213 218 223 226 231 240 248 248 255 269 283 298 313 326 341 358 13 18 9 16 34 41 45 38 37 36 22 37 10 20 353 297 218 298 312 279 317 319 315 342 349 353 349 338
174 176 178 180 181 182 183 186 189 188 188 189 190 193 198 203 202 198 198 199 199 199 201 202 202 200 201 205 211 219 226 228 223 215 214 216 216 217 216 215 213 213 216 219 224 226 230 239 245 255 264 268 282 298 310 329 350 4 13 11 10 21 39 47 47 49 38 19 12 30 85 15 328 299 326 319 306 331 326 337 348 354 1 353 342
174 177 180 180 182 185 186 188 189 188 190 192 192 194 198 203 204 202 200 201 203 202 201 202 205 206 209 216 223 227 228 225 218 215 217 219 217 215 213 214 215 213 215 218 221 224 227 235 244 253 259 264 276 291 300 315 336 349 357 357 1 13 20 27 47 53 45 42 44 51 27 354 245 302 328 322 337 340 337 350 349 354 358 352 346
180 180 182 182 184 186 187 187 188 191 194 196 196 197 199 203 204 205 203 202 204 204 202 204 208 212 216 219 217 215 215 215 215 215 215 215 214 213 213 215 216 215 217 217 219 224 228 235 244 251 257 263 273 285 293 301 316 329 337 341 347 358 358 1 21 34 40 41 39 34 10 338 262 311 338 304 332 335 336 348 352 355 353 353 352
192 187 185 182 183 185 188 189 190 194 198 198 198 199 201 204 205 206 205 205 204 204 205 208 212 217 222 224 221 214 212 216 219 218 216 215 213 213 215 216 217 218 219 218 220 223 228 238 248 254 258 263 272 282 288 290 300 309 315 320 327 343 351 359 10 13 20 26 30 27 14 2 327 328 323 293 329 326 328 341 352 353 350 353 354
193 192 189 186 186 188 191 192 194 197 197 196 197 200 201 203 206 207 205 205 205 205 208 213 217 222 225 226 224 221 218 219 220 218 217 217 215 213 214 217 221 223 221 220 220 223 229 240 250 257 260 263 269 276 279 279 286 294 303 309 311 330 347 358 4 6 8 7 13 15 12 13 355 332 301 292 297 295 321 335 342 343 346 352 355
193 193 191 191 191 194 195 195 197 198 196 195 197 200 202 202 204 207 206 206 207 208 212 219 223 224 224 223 221 220 220 220 217 215 216 216 215 214 214 219 223 225 223 221 221 225 231 238 249 257 259 261 266 271 271 269 276 285 301 310 310 325 339 349 355 354 354 353 358 3 5 6 358 347 324 303 261 263 299 317 327 336 341 345 352
198 197 194 194 194 197 198 195 197 198 198 198 198 198 201 202 203 206 208 206 208 213 218 223 224 221 219 218 218 217 217 217 215 215 216 215 216 216 218 221 222 224 224 222 222 223 227 236 248 254 254 254 261 267 267 265 272 284 301 307 305 314 321 328 339 343 341 338 343 350 354 0 1 351 327 319 290 259 260 277 306 322 328 331 344
200 200 199 197 197 198 197 195 196 198 199 198 198 198 200 202 203 205 208 208 209 214 219 221 217 215 216 218 219 219 218 216 215 215 216 216 217 220 223 224 224 226 227 224 222 222 229 238 248 253 251 251 256 263 265 266 271 282 297 299 293 296 300 307 319 330 333 327 331 338 345 352 348 317 311 313 294 262 260 280 300 315 313 313 332
199 199 198 194 194 195 195 196 197 195 196 197 199 200 200 203 204 204 207 210 210 211 213 214 212 213 217 220 222 225 224 221 218 218 219 219 222 224 225 227 230 231 229 226 224 228 236 242 248 252 252 253 255 256 259 264 268 273 286 290 285 289 293 297 304 315 323 322 325 331 333 341 342 332 320 310 296 284 278 276 297 315 314 308 324
201 198 195 189 189 190 192 195 195 193 195 198 199 201 201 203 205 205 207 209 209 209 210 212 215 217 220 223 227 231 230 228 225 225 226 226 229 230 229 231 234 233 230 228 229 233 242 246 250 256 259 261 259 254 253 259 264 267 276 280 280 287 291 290 294 302 313 320 323 324 323 330 338 339 330 318 309 297 285 280 296 308 298 301 318
201 199 195 193 191 191 192 193 193 194 196 197 199 200 201 203 204 206 208 209 210 211 213 217 219 222 224 227 232 236 235 233 232 232 232 233 235 236 236 237 238 237 234 233 234 238 244 249 253 258 262 265 262 256 253 254 259 264 269 274 274 281 288 287 288 291 299 313 320 322 322 323 329 333 329 319 313 305 295 289 295 305 294 292 308
198 198 197 196 194 192 192 193 194 196 197 197 198 199 200 201 203 205 206 208 210 212 216 220 222 223 226 229 235 238 240 238 236 237 238 238 239 240 241 242 243 243 241 241 241 242 246 250 254 259 262 262 258 255 254 253 255 259 265 270 270 274 280 283 287 288 292 304 313 317 318 318 320 323 321 314 308 307 309 306 296 297 300 296 300
199 199 198 198 196 194 194 195 196 198 197 197 198 199 200 201 203 205 207 207 209 212 217 221 223 224 225 230 235 237 238 238 237 238 240 241 242 243 244 245 246 246 245 245 245 246 249 251 253 258 261 260 256 252 252 250 250 255 261 266 268 270 273 279 284 285 287 292 297 303 310 313 315 315 308 302 302 304 315 320 305 283 275 302 312
203 204 200 197 196 196 196 196 197 198 198 199 200 201 202 203 204 205 207 208 209 212 217 221 222 223 225 230 233 234 234 234 235 237 239 241 244 246 249 249 248 248 247 247 249 251 253 252 253 257 258 259 254 250 249 247 246 250 255 261 265 266 268 273 278 282 282 283 284 290 302 307 310 309 299 292 296 302 312 319 310 291 275 275 299
209 213 207 204 203 202 201 200 200 200 199 200 203 204 205 205 206 206 206 208 210 212 216 220 221 222 225 229 230 231 232 232 235 237 239 243 246 249 251 249 247 247 248 248 250 253 254 253 253 255 257 257 254 251 251 250 249 250 253 260 265 267 269 268 271 277 278 277 280 286 293 298 303 304 299 295 296 302 307 308 305 296 283 265 252
197 190 178 193 206 212 209 205 211 213 210 206 204 205 206 207 208 208 210 211 211 213 215 218 220 221 225 229 230 231 231 233 236 238 241 245 248 251 250 246 244 246 248 248 249 251 253 254 255 257 258 258 258 259 260 259 258 256 256 259 263 269 274 271 271 275 278 281 284 288 292 294 297 297 297 300 300 300 302 301 299 297 292 280 267
166 163 159 146 138 142 140 106 73 261 257 238 217 208 206 209 210 210 212 213 212 213 214 217 219 221 225 229 231 232 233 235 237 239 243 247 250 251 249 244 243 246 249 250 251 252 253 253 255 256 256 257 260 264 267 269 266 261 259 260 262 266 271 272 273 276 280 284 285 289 291 289 288 292 296 299 297 295 295 295 299 301 301 296 284
197 185 168 146 146 158 170 176 188 209 226 238 235 223 213 210 211 212 213 213 212 213 214 216 219 221 223 227 230 233 234 236 238 240 244 247 250 250 247 245 246 249 251 254 254 253 252 252 254 254 254 256 259 263 268 269 264 259 258 259 259 258 261 265 268 273 276 277 280 285 286 284 285 291 297 297 293 292 290 289 297 304 310 316 307
252 224 172 160 160 166 176 180 187 204 214 216 223 228 223 217 213 213 214 213 214 215 215 217 219 220 223 226 229 232 235 236 238 240 243 245 247 248 246 246 248 250 253 255 256 256 255 255 257 259 259 258 258 260 264 264 260 255 254 255 255 255 257 259 260 265 269 269 273 279 281 280 282 286 291 291 290 292 292 293 304 311 316 331 335
299 293 253 210 185 177 176 178 188 203 212 214 216 219 223 223 219 216 216 216 217 218 217 218 219 221 224 225 227 230 233 235 237 238 240 241 243 245 245 246 249 253 255 255 256 258 260 261 261 262 261 257 256 258 260 262 260 257 257 258 258 258 258 258 260 263 267 270 272 279 283 281 278 279 283 285 289 295 297 302 314 319 319 328 339
337 332 317 300 246 201 184 178 189 202 209 215 218 217 217 220 221 220 220 220 220 220 219 218 219 222 224 225 226 228 230 233 235 236 237 238 240 241 243 245 249 253 255 256 257 258 261 262 260 260 259 257 257 258 261 262 260 259 261 263 263 262 259 259 263 266 269 272 275 280 284 279 273 275 278 281 289 299 307 314 320 325 327 332 340
341 337 333 333 311 255 225 199 196 201 208 214 218 218 216 215 216 219 222 223 222 221 220 219 220 221 222 224 226 227 228 230 232 234 235 235 236 239 241 244 247 251 254 256 257 258 259 259 259 260 260 261 261 262 264 265 262 262 264 266 265 262 260 263 269 271 270 270 272 277 279 276 274 276 273 276 287 294 305 315 321 324 329 334 337
331 325 322 322 11 309 287 259 227 217 214 215 218 219 218 215 215 216 220 223 223 222 221 220 220 220 221 223 224 225 227 229 231 233 234 234 235 236 240 243 246 249 253 255 255 256 257 259 260 260 260 263 264 264 266 266 265 264 264 266 265 261 260 262 266 270 268 264 265 269 272 271 270 271 267 273 284 285 290 305 318 324 328 332 335
327 323 322 328 338 305 290 282 268 256 238 226 222 221 220 217 215 216 218 220 221 222 221 220 220 220 221 223 223 225 227 228 230 232 233 234 234 235 238 241 245 248 250 252 253 255 257 259 261 261 262 264 264 264 265 264 263 262 263 266 265 262 262 262 263 267 264 260 262 265 269 267 261 262 267 278 286 278 276 298 316 324 327 329 331
354 347 334 335 339 333 333 289 273 267 260 249 238 232 228 223 219 217 217 218 218 219 220 221 221 220 222 224 225 226 228 229 230 231 232 233 233 234 237 239 243 245 247 249 251 255 259 261 261 262 264 265 263 264 264 262 260 261 262 263 264 266 267 263 261 262 259 260 263 263 262 261 257 262 267 273 274 262 267 298 315 323 326 327 331
359 355 334 323 313 303 306 301 282 257 250 251 249 244 239 234 228 222 220 220 218 217 218 220 220 221 223 225 226 227 228 228 229 230 231 232 233 235 236 239 242 244 245 248 252 256 261 262 262 262 262 263 263 265 264 262 262 263 263 264 266 269 267 260 259 266 278 292 294 286 273 252 235 226 235 248 239 239 284 308 317 323 326 330 334
351 343 328 316 307 307 307 306 299 273 254 246 244 245 243 240 235 229 225 224 220 217 218 218 219 223 226 226 226 227 227 227 227 229 230 232 234 235 236 238 241 244 245 248 252 256 260 263 263 262 261 262 264 264 263 263 265 268 269 269 271 274 271 269 275 286 297 303 296 281 262 227 212 203 202 211 208 232 309 324 324 328 334 342 352
326 326 322 319 317 322 323 320 315 301 283 261 249 244 242 241 239 234 231 228 223 220 219 218 219 223 226 227 226 226 226 226 226 228 230 231 233 235 237 239 242 243 245 247 250 253 257 260 262 261 262 263 262 260 260 262 264 266 267 268 272 276 270 265 271 277 274 269 259 242 218 208 207 205 200 192 185 193 339 343 341 352 4 12 22
311 313 318 323 324 327 325 322 321 316 309 295 274 256 246 242 240 237 235 232 227 223 220 221 222 222 223 225 226 226 225 225 226 228 229 231 234 236 237 239 241 243 245 246 248 251 253 257 259 259 260 261 258 254 255 259 261 260 258 257 257 260 258 256 262 265 256 252 252 231 201 196 199 196 190 186 178 159 118 93 45 44 43 39 42
306 298 303 309 307 311 311 311 313 312 312 310 298 278 262 254 249 244 238 233 231 227 224 224 224 223 223 223 224 225 225 225 226 227 229 230 232 234 237 238 240 244 246 246 246 248 250 252 253 254 254 253 250 249 251 254 258 256 251 249 250 253 254 251 252 252 247 244 241 224 203 194 187 180 178 175 164 144 130 118 95 78 72 66 62
296 288 297 301 300 304 305 305 307 309 313 314 306 292 282 273 264 255 245 237 233 230 226 226 226 225 224 222 222 223 224 227 228 227 228 230 231 234 237 240 242 244 245 245 244 244 245 247 248 247 245 242 242 246 251 253 254 252 248 248 250 249 247 244 246 250 251 245 234 221 211 200 185 173 167 160 147 135 126 115 101 92 86 81 75
297 298 299 296 298 300 300 302 306 311 316 315 310 304 297 287 275 264 254 244 237 232 228 226 225 225 224 222 220 220 224 229 231 229 228 228 231 235 237 239 242 243 242 242 240 238 237 238 240 238 235 235 240 248 254 255 252 248 245 246 247 245 244 243 243 243 243 237 227 218 211 198 173 152 143 141 135 128 122 112 102 95 89 83 78
281 287 288 291 295 295 298 302 306 311 314 312 310 307 302 294 283 271 261 249 240 236 232 227 225 224 222 220 218 217 217 221 229 242 244 237 231 231 234 235 234 234 234 232 228 226 226 227 227 225 223 225 238 250 255 257 256 251 245 243 242 241 237 229 221 220 220 218 213 206 197 175 138 123 121 125 126 122 117 111 103 98 93 88 85
280 285 289 293 295 297 303 308 311 312 312 310 310 307 302 295 287 277 267 255 243 236 233 229 225 222 219 217 217 215 213 214 219 233 255 257 241 229 227 227 223 220 217 212 206 205 209 212 210 207 208 212 227 249 258 263 266 263 253 243 235 229 222 211 201 195 190 184 179 174 162 141 127 123 123 125 123 118 114 111 106 101 96 91 88
285 292 294 297 301 306 312 317 318 317 315 314 313 310 303 294 286 278 271 261 248 239 235 231 228 224 218 215 216 216 215 217 220 222 230 243 240 224 217 215 213 208 196 188 191 189 182 183 185 181 189 200 206 238 263 271 278 276 252 222 210 193 171 156 149 146 147 147 142 133 130 128 123 120 122 123 118 112 110 110 107 102 94 86 82
276 284 288 296 308 315 317 319 320 319 318 318 315 310 302 291 284 279 273 265 255 246 239 233 230 228 223 219 219 219 216 214 214 215 217 221 219 209 201 194 190 185 172 166 176 174 154 150 160 158 159 171 166 148 297 298 300 292 162 163 165 155 138 128 124 124 125 127 130 130 128 125 119 115 113 110 105 102 103 106 106 101 93 84 79
273 285 295 307 320 323 322 324 323 320 319 317 313 307 298 289 284 278 270 263 258 254 247 238 231 227 225 222 219 215 208 203 205 210 211 208 202 194 187 179 172 167 160 159 163 160 146 141 145 142 135 133 122 100 77 64 79 95 128 145 141 131 123 119 116 114 114 116 121 123 122 121 120 118 113 103 98 98 101 103 103 100 96 92 88
280 303 315 322 327 328 327 325 323 321 319 315 311 302 290 285 283 276 269 264 259 254 249 241 232 224 221 219 214 206 201 198 202 204 201 199 195 184 175 171 167 162 159 157 156 152 143 133 130 130 124 112 100 95 88 87 100 110 121 134 132 124 121 117 111 108 108 109 111 114 116 120 122 121 115 105 98 98 99 99 98 98 99 98 93
301 321 330 332 333 332 331 329 328 326 322 320 316 301 286 281 277 273 273 269 256 244 239 234 227 220 214 208 201 196 195 194 193 190 186 183 179 171 165 164 162 158 154 149 145 140 132 122 119 121 119 110 101 99 101 108 116 120 121 124 123 122 126 126 122 120 121 119 117 116 115 115 117 119 117 109 101 98 96 96 98 100 100 96 88
325 333 340 342 339 336 335 338 339 333 327 327 322 308 295 285 277 276 280 273 250 231 224 220 216 210 204 199 194 191 188 185 181 178 173 165 157 155 157 158 156 151 144 137 132 129 124 118 113 111 111 112 111 109 114 120 124 125 125 124 121 120 127 132 131 129 127 125 125 126 123 118 119 121 118 109 101 99 99 99 101 100 96 89 83
326 340 352 355 351 346 345 348 349 341 335 338 334 323 320 320 305 291 284 267 236 217 209 208 206 202 197 193 192 189 184 179 175 171 163 154 149 148 148 149 148 144 137 130 128 129 128 123 116 114 116 118 118 117 120 125 128 128 128 128 126 124 128 132 132 130 127 125 125 128 129 129 128 123 115 107 102 102 103 103 101 95 88 83 81
329 356 7 7 5 1 359 0 1 357 354 356 356 352 354 358 350 318 244 212 204 200 198 198 197 195 193 190 186 179 172 170 170 166 157 149 145 142 140 140 140 136 131 128 127 128 128 125 123 124 124 123 124 123 123 125 129 131 131 132 130 127 128 131 129 126 124 121 122 129 133 133 130 123 115 109 106 106 105 101 97 90 84 82 83
359 13 15 19 22 19 17 14 12 12 10 9 14 21 20 20 30 60 129 167 178 183 186 188 186 184 182 176 168 157 151 153 157 155 149 142 138 135 133 132 129 126 124 125 125 125 125 126 127 127 125 123 125 126 127 128 129 129 132 133 130 127 129 131 130 128 122 118 125 132 133 130 127 122 116 113 110 108 106 100 95 90 86 84 85
29 31 37 47 41 30 26 22 18 20 21 20 26 36 40 46 58 76 99 113 117 120 124 132 142 148 152 155 151 141 132 129 130 130 126 123 122 122 121 120 120 119 118 119 121 123 126 126 125 123 124 126 129 129 130 130 130 131 135 137 137 136 139 142 144 143 134 128 133 135 133 131 128 122 116 114 111 108 105 99 93 90 88 85 85
55 67 65 57 47 39 37 34 29 27 28 30 35 41 49 59 66 77 92 92 82 80 88 92 96 101 106 115 123 123 119 115 112 110 109 109 110 110 110 112 116 119 119 121 123 124 124 124 124 125 128 129 128 126 124 126 132 140 145 150 153 155 157 159 160 158 149 142 140 139 135 131 127 120 115 112 109 104 102 99 95 93 92 90 89
80 80 67 56 54 54 51 45 40 37 36 37 40 42 48 60 69 77 85 86 81 80 84 87 90 91 93 94 95 98 102 105 105 103 103 104 105 107 108 111 116 118 120 124 125 124 125 127 127 129 130 128 124 121 121 125 133 138 145 155 161 165 168 169 169 164 153 145 141 138 133 127 122 118 115 111 108 107 105 102 99 97 94 91 87
93 77 60 58 65 65 57 48 45 44 44 45 46 47 52 61 70 78 85 88 88 86 85 87 89 90 91 94 95 94 96 100 101 103 104 104 105 108 110 110 112 114 116 118 118 119 124 127 125 123 123 122 119 116 116 120 123 123 128 131 133 139 143 144 147 149 144 139 136 132 128 124 120 118 115 112 111 111 106 102 99 96 90 85 81
103 67 57 68 77 70 57 48 47 50 53 55 54 54 57 65 73 80 86 90 91 89 87 87 90 92 93 95 96 99 101 103 104 104 104 102 102 102 102 102 105 107 108 109 111 115 120 120 117 116 115 113 112 109 107 109 112 113 115 117 120 125 130 136 142 143 136 131 130 127 123 122 121 117 114 112 112 110 105 102 98 91 85 81 79